Regional Weather Roundup
Issued by NWS Sioux Falls, SD

Home | Current Version | Previous Version | Text Only | Print | Product List | Glossary On
Versions: 1 2 3 4 5 6 7 8 9 10 11 12 13 14 15 16 17 18 19 20 21 22 23 24 25 26 27 28 29 30 31 32 33 34 35 36 37 38 39 40 41 42 43 44 45 46 47 48 49 50
000
ASUS43 KFSD 272110
RWRFSD

WEATHER ROUNDUP FOR SE SOUTH DAKOTA/SW MINNESOTA/NW IOWA
NATIONAL WEATHER SERVICE SIOUX FALLS SD
400 PM CDT MON MAR 27 2017

NOTE: "FAIR" INDICATES FEW OR NO CLOUDS BELOW 12,000 FEET WITH NO
SIGNIFICANT WEATHER AND OR OBSTRUCTIONS TO VISIBILITY.


SDZ038>040-050-052>070-272200-
SOUTHEAST SOUTH DAKOTA

CITY           SKY/WX    TMP DP  RH WIND       PRES   REMARKS
BROOKINGS      SUNNY     57  35  43 SE6       29.92F
CHAMBERLAIN    SUNNY     63  31  30 E8        29.90S
HURON          CLOUDY    58  34  40 E5        29.92F
MADISON        FAIR      55  39  54 E7        29.93F
MITCHELL       SUNNY     59  33  37 S8        29.93F
SIOUX FALLS    MOSUNNY   59  37  44 CALM      29.93F
WINNER         FAIR      62  38  40 CALM      29.88F
YANKTON        SUNNY     55  37  50 SE3       29.93S
$$

MNZ071-072-080-081-089-090-097-098-272200-
SOUTHWEST MINNESOTA

CITY           SKY/WX    TMP DP  RH WIND       PRES   REMARKS
FAIRMONT       CLOUDY    49  41  74 NE6       29.97S
JACKSON          N/A     50  37  62 CALM      29.96F
LUVERNE        MOSUNNY   54  36  50 E8        29.95F
MARSHALL       SUNNY     54  37  52 CALM      29.95F
MONTEVIDEO     SUNNY     61  39  44 SE5       29.97F
PIPESTONE      SUNNY     57  32  38 E3        29.93F
REDWOOD FALLS  SUNNY     57  36  45 E6        29.94F
TRACY          SUNNY     55  39  54 N6        29.95F
WINDOM         MOSUNNY   54  37  54 CALM      29.95F
WORTHINGTON    PTSUNNY   50  38  63 NE8       29.96F
$$

IAZ001>003-012>014-020>022-031-032-NEZ013-014-SDZ071-272200-
NORTHWEST IOWA

CITY           SKY/WX    TMP DP  RH WIND       PRES   REMARKS
CHEROKEE       CLOUDY    48  40  75 NE7       29.97S
DENISON        CLOUDY    50  39  66 N8        29.96F
ESTHERVILLE    CLOUDY    49  40  71 NE8       29.96S
LE MARS        CLOUDY    54  41  62 E7        29.96F
ORANGE CITY    PTSUNNY   52  41  66 E6        29.96S
SHELDON        CLOUDY    50  39  66 E9        29.95S
SIOUX CITY     MOSUNNY   56  40  55 VRB7      29.94F
SPENCER        CLOUDY    50  38  63 VRB3      29.96F
STORM LAKE       N/A     46  39  76 NE6       29.96F
$$

ABBREVIATIONS USED IN REMARKS
   TC - TEMPERATURE IN CELSIUS
  WCI - WIND CHILL INDEX
   HX - HEAT INDEX
  VSB - VISIBILITY




USA.gov is the U.S. government's official web portal to all federal, state and local government web resources and services.